Simultaneous Nadir Overpasses (SNOs) Predictions

Prediction of SNOs between GOES-16 and METOP-C Satellite Orbit:

Table of predicted SNOs for the next 14.0 days since TLE Epoch: 11/20/2023
Index Date Time (GOES-16) GOES-16 Lat,Lon METOP-C Lat,Lon Distance(km) Time Diff (sec)
1 11/21/2023 14:44:38 -0.04, -75.21 0.81, -79.01 432.74 80
2 11/22/2023 14:26:39 -0.04, -75.21 -0.32, -74.02 136.19 80
3 11/24/2023 02:45:39 0.04, -75.19 -0.72, -78.61 388.87 80
4 11/25/2023 02:22:21 0.04, -75.20 0.41, -73.62 180.38 80
5 11/26/2023 14:41:14 -0.03, -75.22 0.61, -78.18 337.50 80
6 11/27/2023 14:23:15 -0.03, -75.22 -0.46, -73.18 232.06 80
7 11/29/2023 02:42:15 0.02, -75.22 -0.56, -77.78 292.04 80
8 11/30/2023 02:18:57 0.02, -75.22 0.58, -72.79 277.82 80
9 12/01/2023 14:37:50 -0.01, -75.25 0.45, -77.35 239.12 80
10 12/02/2023 14:19:50 -0.01, -75.26 -0.63, -72.35 331.28 80
11 12/04/2023 02:38:51 0.00, -75.27 -0.37, -76.95 191.29 80
